Time,TemperatureF,DewpointF,PressureIn,WindDirection,WindDirectionDegrees,WindSpeedMPH,WindSpeedGustMPH,Humidity,HourlyPrecipIn,Conditions,Clouds,dailyrainin,SoftwareType,DateUTC
2013-11-12 00:00:00,54.0,44.0,29.94,WSW,240,26.0,30.0,67,-99.99,,,-99.99,,2013-11-12 05:00:00,
2013-11-12 00:43:00,54.0,44.0,29.94,WSW,240,26.0,30.0,67,-99.99,,,-99.99,,2013-11-12 05:43:00,
2013-11-12 00:53:00,54.0,44.0,29.94,WSW,240,26.0,30.0,67,-99.99,,,-99.99,,2013-11-12 05:53:00,
2013-11-12 01:00:00,55.0,45.0,29.92,WSW,240,30.0,34.0,70,-99.99,,,-99.99,,2013-11-12 06:00:00,
2013-11-12 01:42:00,55.0,45.0,29.92,WSW,240,30.0,34.0,70,-99.99,,,-99.99,,2013-11-12 06:42:00,
2013-11-12 01:52:00,55.0,45.0,29.92,WSW,240,30.0,34.0,70,-99.99,,,-99.99,,2013-11-12 06:52:00,
2013-11-12 02:00:00,54.0,36.0,29.92,WSW,250,30.0,31.0,50,-99.99,,,-99.99,,2013-11-12 07:00:00,
2013-11-12 02:41:00,54.0,36.0,29.92,WSW,250,30.0,31.0,50,-99.99,,,-99.99,,2013-11-12 07:41:00,
2013-11-12 02:52:00,54.0,36.0,29.92,WSW,250,30.0,31.0,50,-99.99,,,-99.99,,2013-11-12 07:52:00,
2013-11-12 03:00:00,54.0,37.0,29.90,WSW,240,32.0,34.0,52,-99.99,,,-99.99,,2013-11-12 08:00:00,
2013-11-12 03:42:00,54.0,37.0,29.90,WSW,240,32.0,34.0,52,-99.99,,,-99.99,,2013-11-12 08:42:00,
2013-11-12 03:52:00,54.0,37.0,29.90,WSW,240,32.0,34.0,52,-99.99,,,-99.99,,2013-11-12 08:52:00,
2013-11-12 04:00:00,53.0,37.0,29.89,West,260,24.0,26.0,55,-99.99,,,-99.99,,2013-11-12 09:00:00,
2013-11-12 04:21:00,53.0,37.0,29.89,West,260,24.0,26.0,55,-99.99,,,-99.99,,2013-11-12 09:21:00,
2013-11-12 04:33:00,53.0,37.0,29.89,West,260,24.0,26.0,55,-99.99,,,-99.99,,2013-11-12 09:33:00,
2013-11-12 04:42:00,53.0,37.0,29.89,West,260,24.0,26.0,55,-99.99,,,-99.99,,2013-11-12 09:42:00,
2013-11-12 04:53:00,53.0,37.0,29.89,West,260,24.0,26.0,55,-99.99,,,-99.99,,2013-11-12 09:53:00,
2013-11-12 05:00:00,53.0,33.0,29.92,West,270,21.0,24.0,47,-99.99,,,-99.99,,2013-11-12 10:00:00,
2013-11-12 05:42:00,53.0,33.0,29.92,West,270,21.0,24.0,47,-99.99,,,-99.99,,2013-11-12 10:42:00,
2013-11-12 05:52:00,53.0,33.0,29.92,West,270,21.0,24.0,47,-99.99,,,-99.99,,2013-11-12 10:52:00,
2013-11-12 06:00:00,51.0,35.0,29.92,WNW,290,25.0,28.0,52,-99.99,,,-99.99,,2013-11-12 11:00:00,
2013-11-12 06:42:00,51.0,35.0,29.92,WNW,290,25.0,28.0,52,-99.99,,,-99.99,,2013-11-12 11:42:00,
2013-11-12 06:51:00,51.0,35.0,29.92,WNW,290,25.0,28.0,52,-99.99,,,-99.99,,2013-11-12 11:51:00,
2013-11-12 07:00:00,46.0,38.0,29.96,NW,310,22.0,25.0,75,-99.99,,,-99.99,,2013-11-12 12:00:00,
2013-11-12 07:41:00,46.0,38.0,29.96,NW,310,22.0,25.0,75,-99.99,,,-99.99,,2013-11-12 12:41:00,
2013-11-12 07:52:00,46.0,38.0,29.96,NW,310,22.0,25.0,75,-99.99,,,-99.99,,2013-11-12 12:52:00,
2013-11-12 08:00:00,-999.0,-99.9,29.99,NW,320,30.0,33.0,-999,-99.99,,,-99.99,,2013-11-12 13:00:00,
2013-11-12 08:22:00,-999.0,-99.9,29.99,NW,320,30.0,33.0,-999,-99.99,,,-99.99,,2013-11-12 13:22:00,
2013-11-12 08:32:00,-999.0,-99.9,29.99,NW,320,30.0,33.0,-999,-99.99,,,-99.99,,2013-11-12 13:32:00,
2013-11-12 08:42:00,-999.0,-99.9,29.99,NW,320,30.0,33.0,-999,-99.99,,,-99.99,,2013-11-12 13:42:00,
2013-11-12 08:52:00,-999.0,-99.9,29.99,NW,320,30.0,33.0,-999,-99.99,,,-99.99,,2013-11-12 13:52:00,
2013-11-12 09:00:00,39.0,36.0,30.01,NNW,330,24.0,26.0,89,-99.99,,,-99.99,,2013-11-12 14:00:00,
2013-11-12 09:42:00,39.0,36.0,30.01,NNW,330,24.0,26.0,89,-99.99,,,-99.99,,2013-11-12 14:42:00,
2013-11-12 09:52:00,39.0,36.0,30.01,NNW,330,24.0,26.0,89,-99.99,,,-99.99,,2013-11-12 14:52:00,
2013-11-12 10:00:00,36.0,35.0,30.03,NNW,330,25.0,30.0,95,-99.99,,,-99.99,,2013-11-12 15:00:00,
2013-11-12 10:43:00,36.0,35.0,30.03,NNW,330,25.0,30.0,95,-99.99,,,-99.99,,2013-11-12 15:43:00,
2013-11-12 10:53:00,36.0,35.0,30.03,NNW,330,25.0,30.0,95,-99.99,,,-99.99,,2013-11-12 15:53:00,
2013-11-12 11:00:00,33.0,33.0,30.04,NNW,340,29.0,31.0,99,-99.99,,,-99.99,,2013-11-12 16:00:00,
2013-11-12 11:42:00,33.0,33.0,30.04,NNW,340,29.0,31.0,99,-99.99,,,-99.99,,2013-11-12 16:42:00,
2013-11-12 11:52:00,33.0,33.0,30.04,NNW,340,29.0,31.0,99,-99.99,,,-99.99,,2013-11-12 16:52:00,
2013-11-12 12:00:00,32.0,31.0,30.05,NNW,330,25.0,28.0,97,-99.99,,,-99.99,,2013-11-12 17:00:00,
2013-11-12 12:42:00,32.0,31.0,30.05,NNW,330,25.0,28.0,97,-99.99,,,-99.99,,2013-11-12 17:42:00,
2013-11-12 12:52:00,32.0,31.0,30.05,NNW,330,25.0,28.0,97,-99.99,,,-99.99,,2013-11-12 17:52:00,
2013-11-12 13:00:00,31.0,29.0,30.06,North,360,16.0,20.0,93,-99.99,,,-99.99,,2013-11-12 18:00:00,
2013-11-12 13:42:00,31.0,29.0,30.06,North,360,16.0,20.0,93,-99.99,,,-99.99,,2013-11-12 18:42:00,
2013-11-12 13:52:00,31.0,29.0,30.06,North,360,16.0,20.0,93,-99.99,,,-99.99,,2013-11-12 18:52:00,
2013-11-12 14:00:00,34.0,27.0,30.06,North,360,8.0,11.0,75,-99.99,,,-99.99,,2013-11-12 19:00:00,
2013-11-12 14:21:00,34.0,27.0,30.06,North,360,8.0,11.0,75,-99.99,,,-99.99,,2013-11-12 19:21:00,
2013-11-12 14:32:00,34.0,27.0,30.06,North,360,8.0,11.0,75,-99.99,,,-99.99,,2013-11-12 19:32:00,
2013-11-12 14:42:00,34.0,27.0,30.06,North,360,8.0,11.0,75,-99.99,,,-99.99,,2013-11-12 19:42:00,
2013-11-12 14:52:00,34.0,27.0,30.06,North,360,8.0,11.0,75,-99.99,,,-99.99,,2013-11-12 19:52:00,
2013-11-12 15:00:00,36.0,21.0,30.07,NNW,340,22.0,23.0,55,-99.99,,,-99.99,,2013-11-12 20:00:00,
2013-11-12 15:42:00,36.0,21.0,30.07,NNW,340,22.0,23.0,55,-99.99,,,-99.99,,2013-11-12 20:42:00,
2013-11-12 15:52:00,36.0,21.0,30.07,NNW,340,22.0,23.0,55,-99.99,,,-99.99,,2013-11-12 20:52:00,
2013-11-12 16:00:00,36.0,20.0,30.10,NW,320,25.0,29.0,52,-99.99,,,-99.99,,2013-11-12 21:00:00,
2013-11-12 16:43:00,36.0,20.0,30.10,NW,320,25.0,29.0,52,-99.99,,,-99.99,,2013-11-12 21:43:00,
2013-11-12 16:54:00,36.0,20.0,30.10,NW,320,25.0,29.0,52,-99.99,,,-99.99,,2013-11-12 21:54:00,
2013-11-12 17:00:00,35.0,18.0,30.11,NW,320,28.0,33.0,51,-99.99,,,-99.99,,2013-11-12 22:00:00,
2013-11-12 17:43:00,35.0,18.0,30.11,NW,320,28.0,33.0,51,-99.99,,,-99.99,,2013-11-12 22:43:00,
2013-11-12 17:54:00,35.0,18.0,30.11,NW,320,28.0,33.0,51,-99.99,,,-99.99,,2013-11-12 22:54:00,
2013-11-12 18:00:00,35.0,18.0,30.13,NNW,330,23.0,26.0,50,-99.99,,,-99.99,,2013-11-12 23:00:00,
2013-11-12 18:42:00,35.0,18.0,30.13,NNW,330,23.0,26.0,50,-99.99,,,-99.99,,2013-11-12 23:42:00,
2013-11-12 18:53:00,35.0,18.0,30.13,NNW,330,23.0,26.0,50,-99.99,,,-99.99,,2013-11-12 23:53:00,
2013-11-12 19:00:00,35.0,18.0,30.15,NNW,330,25.0,29.0,48,-99.99,,,-99.99,,2013-11-13 00:00:00,
2013-11-12 19:42:00,35.0,18.0,30.15,NNW,330,25.0,29.0,48,-99.99,,,-99.99,,2013-11-13 00:42:00,
2013-11-12 19:52:00,35.0,18.0,30.15,NNW,330,25.0,29.0,48,-99.99,,,-99.99,,2013-11-13 00:52:00,
2013-11-12 20:00:00,35.0,19.0,30.15,NNW,330,26.0,31.0,51,-99.99,,,-99.99,,2013-11-13 01:00:00,
2013-11-12 20:42:00,35.0,19.0,30.15,NNW,330,26.0,31.0,51,-99.99,,,-99.99,,2013-11-13 01:42:00,
2013-11-12 20:52:00,35.0,19.0,30.15,NNW,330,26.0,31.0,51,-99.99,,,-99.99,,2013-11-13 01:52:00,
2013-11-12 21:00:00,35.0,17.0,30.16,NNW,340,29.0,33.0,47,-99.99,,,-99.99,,2013-11-13 02:00:00,
2013-11-12 21:42:00,35.0,17.0,30.16,NNW,340,29.0,33.0,47,-99.99,,,-99.99,,2013-11-13 02:42:00,
2013-11-12 21:52:00,35.0,17.0,30.16,NNW,340,29.0,33.0,47,-99.99,,,-99.99,,2013-11-13 02:52:00,
2013-11-12 22:00:00,34.0,14.0,30.16,NNW,340,31.0,36.0,44,-99.99,,,-99.99,,2013-11-13 03:00:00,
2013-11-12 22:44:00,34.0,14.0,30.16,NNW,340,31.0,36.0,44,-99.99,,,-99.99,,2013-11-13 03:44:00,
2013-11-12 22:54:00,34.0,14.0,30.16,NNW,340,31.0,36.0,44,-99.99,,,-99.99,,2013-11-13 03:54:00,
2013-11-12 23:00:00,33.0,18.0,30.17,NNW,330,25.0,30.0,54,-99.99,,,-99.99,,2013-11-13 04:00:00,
2013-11-12 23:42:00,33.0,18.0,30.17,NNW,330,25.0,30.0,54,-99.99,,,-99.99,,2013-11-13 04:42:00,
2013-11-12 23:53:00,33.0,18.0,30.17,NNW,330,25.0,30.0,54,-99.99,,,-99.99,,2013-11-13 04:53:00,